This demonstration page uses our WeatherBlox Daily Observations layout. Learn more.

Left ArrowRight Arrow

Hourly Observations for April 29, 2019

Temp ( °F °C ) Dew Point ( °F °C ) Humidity (%) Winds ( mph kmh ) Pressure ( in mb ) Visibility ( mi km ) Precip ( " mm )
12:53 am 00:53 Clear 73 22.8 60 15.6 64 64 SSE 10 17 29.65 1004 10 16 0.00 0.00
1:53 am 01:53 Clear 70 21.1 60 15.6 71 71 SE 10 17 29.65 1004 10 16 0.00 0.00
2:53 am 02:53 Clear 71 21.7 59 15 66 66 SE 14 22 29.63 1004 10 16 0.00 0.00
3:53 am 03:53 Clear 69 20.6 58 14.4 68 68 SE 14 22 29.62 1003 10 16 0.00 0.00
4:53 am 04:53 Clear 67 19.4 58 14.4 73 73 SE 9 15 29.64 1004 10 16 0.00 0.00
5:53 am 05:53 Clear 65 18.3 59 15 81 81 ESE 7 11 29.66 1004 10 16 0.00 0.00
6:53 am 06:53 Clear 64 17.8 59 15 84 84 ESE 6 9 29.68 1005 10 16 0.00 0.00
7:53 am 07:53 Sunny 63 17.2 60 15.6 90 90 ESE 10 17 29.70 1006 10 16 0.00 0.00
8:53 am 08:53 Sunny 67 19.4 61 16.1 81 81 SE 10 17 29.72 1007 10 16 0.00 0.00
9:53 am 09:53 Sunny 71 21.7 61 16.1 71 71 SSE 6 9 29.74 1007 10 16 0.00 0.00
10:53 am 10:53 Sunny 77 25 61 16.1 58 58 Calm 29.74 1007 10 16 0.00 0.00
11:53 am 11:53 Sunny 84 28.9 55 12.8 37 37 N 10 17 29.75 1007 10 16 0.00 0.00
12:53 pm 12:53 Sunny 88 31.1 48 8.9 25 25 N 10 17 29.72 1006 10 16 0.00 0.00
1:53 pm 13:53 Sunny 91 32.8 38 3.3 15 15 NNE 7 11 29.70 1006 10 16 0.00 0.00
2:53 pm 14:53 Sunny 91 32.8 40 4.4 17 17 VRB 7 11 29.67 1005 10 16 0.00 0.00
3:53 pm 15:53 Sunny 91 32.8 49 9.4 24 24 NE 14 22 29.66 1004 10 16 0.00 0.00
4:53 pm 16:53 Sunny 90 32.2 50 10 25 25 ENE 14 22 29.65 1004 10 16 0.00 0.00
5:53 pm 17:53 Mostly Sunny 89 31.7 50 10 26 26 ENE 14 22 29.63 1004 10 16 0.00 0.00
6:19 pm 18:19 Mostly Cloudy with Thunderstorms 82 27.8 57 13.9 42 42 NE 9 15 29.59 1002 10 16 0.00 0.03
6:37 pm 18:37 Cloudy with Thunderstorms 74 23.3 65 18.3 74 74 NW 22 35 29.65 1004 3 4 0.16 4.06
6:41 pm 18:41 Cloudy with Strong Thunderstorms 69 20.6 61 16.1 76 76 NW 18 30 29.69 1006 1 1 0.32 8.13
6:45 pm 18:45 Cloudy with Strong Thunderstorms 64 17.8 60 15.6 87 87 N 24 39 29.69 1005 0 0 0.64 16.26
6:53 pm 18:53 Cloudy with Strong Thunderstorms 61 16.1 60 15.6 97 97 N 21 33 29.72 1006 0 0 1.12 28.45
7:03 pm 19:03 Mostly Cloudy with Strong Thunderstorms 61 16.1 60 15.6 97 97 N 18 30 29.73 1007 1 1 0.34 8.64
7:10 pm 19:10 Mostly Cloudy with Heavy Rain 62 16.7 61 16.1 96 96 N 29 46 29.74 1007 1 1 0.60 15.24
7:15 pm 19:15 Mostly Cloudy with Strong Thunderstorms 62 16.7 61 16.1 96 96 NE 29 46 29.75 1008 0 0 0.78 19.81
8:16 pm 20:16 Cloudy with Thunderstorms 67 19.4 62 16.7 84 84 ENE 18 30 29.75 1007 8 13 0.02 0.51
8:42 pm 20:42 Mostly Clear 69 20.6 63 17.2 81 81 E 23 37 29.72 1007 10 16 0.02 0.51
8:53 pm 20:53 Clear 68 20 63 17.2 84 84 ESE 20 31 29.74 1007 10 16 0.02 0.51
9:53 pm 21:53 Clear 67 19.4 60 15.6 79 79 ESE 14 22 29.74 1007 10 16 0.00 0.00
10:53 pm 22:53 Clear 68 20 61 16.1 78 78 NE 6 9 29.77 1008 10 16 0.00 0.00
11:53 pm 23:53 Partly Cloudy 64 17.8 61 16.1 90 90 NE 6 9 29.75 1008 10 16 0.00 0.00

Powered by AerisWeather